Home > Weather > Beaumont > Past weeks

Flag for USA Past Weather in Beaumont, Texas, USA — Yesterday and Last 2 Weeks

Now
72 °F

Fog.


Feels Like: 68 °F
Forecast: 70 / 88 °F
Wind: No wind

Location: Jefferson County Airport

Current Time: May 30, 2016 at 3:56:39 AM

Latest Report: May 30, 2016 at 2:53 AM


Visibility: 3 mi

Pressure: 30.00 "Hg

Humidity: 93%

Dew Point: 70 °F

Location of BeaumontLocation

Past Weather in Beaumont — Graph

°F

Beaumont Temperature Yesterday

Maximum temperature yesterday: 88 °F (at 1:53 PM)
Minimum temperature yesterday: 71 °F (at 1:53 AM)
Average temperature yesterday: 78 °F

High & Low Weather Summary for the Past Weeks

 TemperatureHumidityPressure
High88 °F (May 25, 1:00 PM)100% (May 22, 5:53 AM)30.12 "Hg (May 22, 5:53 AM)
Low65 °F (May 19, 5:53 AM)45% (May 28, 12:53 PM)29.79 "Hg (May 27, 12:53 PM)
Average77 °F81%29.96 "Hg
* Reported May 15 2:53 AM — May 30 2:53 AM, Beaumont, Weather by CustomWeather, © 2016

Note: Actual official high and low records may vary slightly from our data, if they occured in-between our weather recording intervals... More about our weather records

Advertising

Beaumont Weather History for the Previous 24 Hours

Scroll right to see more
 ConditionsComfort  
Time TempWeatherWind HumidityBarometerVisibility
2:53 AM
Mon, May 30
72 °FFog.No wind93%30.00 "Hg3 mi
1:53 AM71 °FClear.3 mph93%30.01 "Hg9 mi
12:53 AM72 °FClear.No wind93%30.04 "Hg7 mi
11:53 PM
Sun, May 29
73 °FClear.No wind94%30.05 "Hg10 mi
10:53 PM74 °FClear.5 mph91%30.06 "Hg10 mi
9:53 PM75 °FClear.3 mph90%30.06 "Hg10 mi
9:00 PM76 °FPassing clouds.6 mph88%30.03 "Hg10 mi
7:53 PM79 °FPassing clouds.5 mph79%30.01 "Hg10 mi
6:53 PM83 °FPassing clouds.9 mph70%30.00 "Hg10 mi
5:53 PM85 °FScattered clouds.8 mph68%30.01 "Hg10 mi
4:53 PM86 °FPassing clouds.9 mph70%30.03 "Hg10 mi
3:53 PM88 °FPassing clouds.10 mph63%30.03 "Hg10 mi
2:53 PM87 °FPassing clouds.10 mph59%30.06 "Hg10 mi
1:53 PM88 °FPartly sunny.10 mph59%30.08 "Hg10 mi
12:53 PM86 °FPartly sunny.8 mph61%30.10 "Hg10 mi
11:53 AM86 °FPartly sunny.7 mph65%30.11 "Hg10 mi
10:53 AM85 °FScattered clouds.6 mph68%30.12 "Hg10 mi
9:53 AM82 °FScattered clouds.5 mph77%30.11 "Hg10 mi
8:53 AM79 °FSunny.5 mph88%30.09 "Hg10 mi
7:53 AM76 °FSunny.5 mph94%30.09 "Hg10 mi
6:53 AM72 °FClear.No wind93%30.07 "Hg10 mi
5:53 AM71 °FClear.No wind96%30.05 "Hg9 mi
4:58 AM71 °FFog.No wind96%30.03 "Hg2 mi
3:53 AM72 °FClear.No wind93%30.03 "Hg8 mi
3:02 AM71 °FFog.No wind96%30.02 "Hg2 mi
Weather by CustomWeather, © 2016

See weather overviewHow to use our weather pages